Wind_Speed
4 5 5 6 5 4 5 6 6 6 5 5 4 4 4 4 4 4 5 5 5 5 5 5 6 6 6 7 8 8 8 9 9 10 10 11 11 11 12 12 13 14 14
4 4 4 4 4 4 3 5 6 6 6 5 5 5 5 5 5 5 5 6 5 5 5 5 5 6 6 7 7 8 9 9 10 10 11 12 12 13 13 14 14 14 14
4 3 4 4 4 4 3 4 6 6 6 5 5 6 6 5 5 5 5 5 6 6 6 6 6 7 7 7 8 9 9 10 11 11 11 11 12 13 14 14 14 14 15
3 3 3 4 4 4 4 5 6 6 6 6 6 6 6 6 5 5 5 6 6 6 7 7 7 7 7 8 8 9 10 11 12 12 12 13 13 14 14 14 15 15 15
2 3 4 4 5 5 5 6 6 6 7 7 7 7 7 6 6 5 6 6 7 7 7 7 8 8 8 8 9 10 11 12 12 12 13 13 13 14 14 14 15 14 14
2 3 3 4 5 5 6 6 7 7 8 8 8 8 7 7 7 7 7 7 7 8 8 9 9 9 10 10 10 10 11 11 12 13 14 13 12 13 14 15 15 14 14
1 2 2 4 4 5 6 7 8 8 9 9 9 9 9 8 8 8 8 8 9 9 10 10 10 10 11 11 11 11 12 12 13 13 13 13 13 14 15 15 15 15 15
1 2 3 4 5 6 7 7 8 9 9 9 9 8 8 9 9 9 9 10 10 11 11 11 11 12 11 11 12 12 12 13 13 13 14 14 15 15 15 15 15 15 16
2 3 3 4 6 7 8 8 8 9 9 9 9 9 9 9 9 10 10 11 11 11 12 12 12 12 12 13 13 13 13 13 14 13 14 15 15 16 16 16 15 16 16
3 4 4 5 5 6 7 8 8 9 9 10 11 11 11 11 11 11 11 12 12 12 13 13 14 13 13 13 13 14 14 14 14 13 14 15 16 16 17 17 17 17 17
4 4 5 5 6 7 8 8 9 10 10 11 11 11 12 12 12 13 13 13 14 14 14 15 14 14 14 14 14 14 14 15 14 14 15 16 17 17 18 18 17 17 17
5 5 6 6 7 7 8 9 9 10 10 10 11 12 12 12 13 13 13 14 14 14 14 14 14 14 15 15 14 14 15 15 15 16 16 17 17 18 18 18 17 17 17
6 7 7 8 8 8 8 9 10 10 10 11 11 11 12 12 12 13 13 14 14 14 15 14 14 15 15 15 15 15 16 16 16 17 17 17 17 18 18 18 18 18 18
7 7 8 9 9 9 9 9 10 10 11 11 11 11 12 12 13 13 13 14 14 15 15 15 16 16 16 16 16 16 16 17 18 18 18 18 18 18 18 18 17 18 18
8 9 9 9 10 10 10 10 11 11 11 11 11 11 12 13 13 13 14 14 15 15 16 16 16 16 16 17 17 17 18 18 19 19 19 19 20 19 19 18 18 18 18
10 10 10 11 11 11 11 11 11 11 11 11 12 13 14 14 14 14 15 15 15 16 16 16 16 17 17 18 18 19 19 19 20 19 20 20 20 20 20 19 19 19 19
12 12 12 11 11 11 11 11 11 11 12 13 13 14 14 14 15 15 16 16 16 16 16 16 17 17 18 18 19 20 20 20 20 20 21 20 20 21 21 20 20 21 21
13 13 12 12 11 12 12 12 12 13 13 14 14 15 15 16 17 17 17 17 17 17 17 17 18 19 20 21 21 21 21 21 21 21 21 21 20 21 21 21 21 21 21
14 13 13 13 13 12 12 13 13 14 14 14 15 15 16 17 17 18 18 18 18 18 19 19 19 20 21 21 22 22 22 22 23 23 22 22 22 22 22 22 22 21 21
15 15 15 15 14 14 14 14 14 14 15 15 16 16 17 18 18 19 19 19 19 20 20 21 21 21 21 22 22 22 23 23 23 24 24 24 23 23 23 23 23 22 22
17 17 17 16 15 15 15 15 16 16 17 17 18 18 19 19 19 19 19 20 21 21 22 22 22 22 22 23 23 23 24 24 24 25 24 24 24 24 24 23 23 23 24
18 18 17 17 16 16 17 17 17 18 18 19 19 20 20 20 20 20 21 21 22 23 23 23 23 23 24 24 25 25 25 25 25 25 25 24 24 24 25 25 25 25 26
19 18 18 18 18 18 18 19 19 19 20 20 21 21 22 22 21 21 22 23 23 24 24 24 25 25 25 25 26 26 26 26 26 26 26 25 25 25 25 25 25 25 25
20 20 20 20 20 20 20 21 21 21 21 21 21 22 22 22 22 22 22 23 24 24 25 25 26 27 27 27 27 27 27 27 27 26 26 26 26 26 25 25 25 25 25
22 22 21 21 22 22 23 23 22 23 22 22 22 22 23 23 23 23 24 24 25 26 26 26 26 26 26 27 27 28 28 28 27 26 26 26 26 25 25 25 25 25 25
23 23 23 23 23 24 24 25 24 23 23 24 24 24 24 25 25 26 26 26 27 28 27 28 28 28 28 27 27 28 28 28 28 27 26 26 27 26 26 26 26 26 26
Wind_Direction
152 160 160 166 170 177 184 190 194 196 190 199 208 215 227 235 239 246 254 264 271 279 286 294 297 294 289 282 277 278 280 279 274 274 278 278 277 277 275 276 274 271 265
158 166 178 179 185 182 177 190 195 200 206 213 221 226 235 244 251 254 264 265 271 280 288 294 302 301 292 286 285 280 279 281 280 281 282 281 278 278 278 275 272 269 264
165 180 191 199 201 202 200 201 200 212 214 222 235 240 239 248 260 265 268 269 271 278 286 292 297 299 297 291 287 285 281 280 282 285 287 287 286 283 280 274 271 267 262
175 192 205 204 209 216 219 221 221 228 234 239 247 247 248 252 263 269 274 273 275 281 287 292 296 298 299 297 293 289 286 285 285 286 287 287 287 286 283 278 275 270 263
189 202 206 209 218 223 225 222 229 244 249 247 252 252 253 260 262 269 271 273 276 283 291 293 292 295 296 295 295 294 291 289 289 288 288 288 289 287 283 281 279 276 268
180 201 212 214 217 222 230 237 244 249 253 256 261 260 260 263 265 273 275 273 276 283 291 294 292 293 295 295 297 296 294 292 291 290 288 290 290 289 285 282 280 278 272
199 211 220 222 235 235 239 249 251 254 257 260 265 265 265 264 269 273 273 275 280 285 291 296 295 293 294 296 298 299 297 295 295 294 291 290 290 290 286 283 278 275 273
300 264 256 253 260 258 257 260 261 260 263 265 267 267 262 263 267 270 274 279 284 286 289 292 294 293 293 297 299 298 296 295 295 292 290 290 288 289 287 282 277 274 272
320 288 279 266 266 264 266 265 267 265 265 266 267 266 265 268 270 272 278 285 289 291 290 289 293 294 292 295 297 297 299 296 294 291 291 289 290 289 289 286 279 276 274
310 294 289 282 276 270 269 272 268 265 270 270 269 269 267 268 271 275 280 284 287 288 290 289 289 292 292 294 296 299 300 300 298 295 293 292 292 293 291 286 280 276 273
312 303 300 293 289 284 282 280 279 276 278 278 277 276 273 272 275 278 282 285 287 289 290 291 290 292 293 296 295 297 298 299 297 296 295 294 293 293 292 290 284 277 274
310 304 299 298 294 292 290 288 284 282 283 282 281 281 280 280 280 281 282 285 285 287 289 293 294 293 293 295 294 296 295 296 294 294 295 294 294 292 292 290 283 278 277
297 298 302 301 300 298 294 289 284 281 280 282 282 283 283 284 282 285 287 290 289 286 287 290 293 293 294 294 295 295 296 295 295 294 295 295 294 292 292 290 284 280 276
302 305 309 306 303 300 296 293 286 284 284 281 282 285 286 286 286 289 292 292 290 291 289 289 292 291 292 294 294 294 295 294 294 294 294 294 293 293 294 292 288 284 279
310 308 305 306 306 300 299 295 288 287 289 289 288 288 288 290 291 291 292 292 292 291 287 288 290 290 291 293 294 294 294 295 295 295 294 293 293 293 293 291 290 287 283
310 309 302 301 303 302 296 296 294 294 292 293 292 290 292 291 293 293 292 292 292 291 291 290 288 290 293 294 293 292 293 294 295 295 295 294 294 293 292 290 289 289 285
304 306 306 304 304 306 304 302 300 299 295 292 292 291 292 293 295 295 294 294 295 294 292 290 290 290 293 294 293 293 293 293 293 295 295 294 293 292 290 290 290 288 286
302 307 306 303 298 300 301 299 300 300 298 296 294 293 292 293 293 294 293 294 294 293 292 290 290 290 291 293 293 294 295 294 294 294 293 292 292 292 291 290 289 288 288
299 302 304 303 300 299 299 298 300 301 301 299 298 296 295 294 294 293 293 293 294 293 292 293 293 292 292 294 294 295 295 293 293 293 292 291 290 290 290 290 289 288 289
294 297 297 298 298 298 298 297 297 298 299 300 299 299 297 295 294 292 291 291 292 292 293 293 293 292 292 293 295 296 296 294 294 293 293 292 290 290 290 290 289 288 288
290 291 294 295 295 297 298 297 296 295 296 297 297 298 298 297 296 293 291 290 290 291 292 293 292 292 292 293 293 293 294 295 293 292 293 293 292 291 290 289 289 289 289
287 289 291 291 292 295 296 296 295 295 295 296 297 299 300 297 295 294 293 291 291 291 292 293 293 293 293 293 292 292 293 293 292 291 292 293 291 290 289 288 290 289 289
284 287 288 290 289 291 293 294 294 295 296 297 298 299 299 298 297 295 294 293 292 292 291 291 292 293 293 292 291 291 291 291 292 290 289 290 290 289 289 289 289 289 289
284 285 286 290 291 291 291 293 293 294 297 296 296 297 298 298 296 295 294 294 293 294 293 293 293 293 292 292 290 290 291 290 291 290 289 289 289 288 289 289 288 287 288
283 285 286 288 289 289 289 289 290 291 292 296 296 297 297 296 296 294 294 293 293 294 294 294 294 294 293 292 291 290 290 290 290 289 288 287 287 286 288 288 288 288 288
283 285 287 288 289 289 289 289 289 288 290 294 295 295 295 294 294 294 294 293 293 293 293 293 293 293 293 291 290 290 290 289 289 288 288 287 286 285 285 287 288 288 287
Height
5891 5891 5892 5892 5893 5893 5894 5894 5895 5895 5895 5896 5896 5896 5897 5897 5897 5897 5896 5896 5896 5896 5895 5895 5894 5893 5892 5892 5892 5891 5891 5890 5890 5889 5889 5889 5888 5887 5887 5887 5886 5886 5886
5892 5892 5892 5893 5893 5893 5894 5894 5894 5895 5895 5895 5896 5896 5896 5896 5896 5896 5895 5895 5895 5894 5894 5893 5893 5892 5891 5890 5890 5889 5889 5888 5888 5887 5887 5886 5885 5885 5884 5884 5884 5883 5883
5892 5892 5893 5893 5894 5894 5894 5894 5895 5895 5895 5895 5895 5895 5895 5895 5895 5894 5894 5894 5894 5893 5893 5892 5891 5890 5889 5889 5888 5887 5887 5886 5885 5885 5884 5883 5883 5882 5881 5881 5880 5880 5880
5892 5892 5893 5893 5894 5894 5894 5894 5895 5895 5895 5895 5895 5894 5894 5894 5894 5893 5893 5893 5892 5892 5891 5891 5890 5889 5888 5887 5886 5885 5885 5884 5883 5882 5881 5881 5880 5879 5878 5877 5877 5876 5876
5892 5892 5892 5893 5893 5893 5893 5894 5894 5894 5894 5894 5893 5893 5893 5893 5893 5892 5892 5891 5891 5890 5890 5889 5888 5887 5886 5885 5884 5883 5883 5882 5881 5880 5879 5878 5877 5876 5875 5874 5874 5873 5873
5892 5892 5892 5892 5892 5893 5893 5893 5893 5892 5892 5892 5892 5892 5892 5892 5891 5891 5890 5890 5889 5889 5888 5887 5886 5886 5885 5884 5883 5881 5880 5879 5878 5877 5876 5875 5874 5873 5872 5871 5870 5870 5870
5892 5892 5892 5892 5892 5892 5892 5892 5892 5891 5891 5891 5890 5890 5890 5890 5890 5889 5889 5888 5887 5887 5886 5885 5884 5883 5882 5881 5880 5879 5878 5877 5875 5874 5873 5871 5870 5869 5868 5868 5867 5867 5866
5891 5891 5891 5891 5891 5891 5891 5890 5890 5890 5889 5889 5889 5888 5888 5888 5887 5887 5886 5886 5885 5885 5884 5883 5882 5881 5880 5879 5878 5876 5875 5874 5872 5871 5870 5868 5867 5866 5865 5864 5863 5863 5862
5891 5891 5891 5890 5890 5890 5890 5889 5889 5888 5888 5887 5887 5886 5886 5886 5885 5885 5884 5883 5883 5882 5881 5880 5879 5878 5877 5876 5875 5873 5872 5871 5869 5868 5867 5865 5864 5862 5861 5860 5859 5859 5858
5891 5890 5890 5890 5889 5889 5888 5887 5887 5886 5886 5885 5885 5884 5884 5883 5883 5882 5882 5881 5880 5879 5878 5877 5876 5875 5874 5873 5872 5870 5869 5868 5866 5865 5863 5862 5860 5859 5857 5856 5855 5854 5854
5890 5890 5889 5888 5888 5887 5886 5886 5885 5884 5883 5883 5882 5881 5881 5880 5880 5879 5878 5878 5877 5876 5875 5874 5872 5872 5871 5869 5868 5867 5866 5864 5863 5861 5860 5858 5856 5855 5853 5852 5851 5850 5849
5889 5889 5888 5887 5886 5885 5884 5883 5882 5881 5881 5880 5879 5879 5878 5878 5877 5876 5875 5874 5873 5872 5871 5870 5869 5868 5867 5866 5865 5863 5862 5861 5859 5858 5856 5854 5852 5851 5849 5847 5846 5845 5844
5888 5887 5886 5885 5884 5883 5882 5881 5880 5879 5878 5877 5877 5876 5875 5875 5874 5873 5872 5871 5870 5869 5867 5867 5866 5865 5863 5862 5861 5860 5858 5857 5855 5854 5852 5850 5848 5846 5845 5843 5841 5840 5839
5887 5886 5885 5884 5882 5881 5879 5878 5877 5876 5876 5875 5874 5873 5873 5872 5871 5870 5869 5868 5866 5865 5864 5863 5862 5861 5859 5858 5857 5855 5854 5852 5851 5849 5847 5846 5844 5842 5840 5838 5837 5835 5834
5885 5885 5883 5882 5880 5879 5878 5876 5875 5874 5873 5872 5871 5870 5869 5868 5867 5866 5865 5864 5863 5861 5860 5859 5858 5856 5855 5854 5852 5851 5850 5848 5846 5845 5843 5841 5839 5838 5835 5834 5832 5831 5829
5884 5883 5881 5880 5879 5877 5876 5874 5873 5871 5870 5869 5868 5867 5866 5865 5863 5862 5861 5860 5858 5857 5856 5855 5853 5852 5851 5849 5848 5846 5845 5843 5841 5839 5838 5836 5834 5832 5830 5829 5827 5825 5824
5882 5880 5879 5877 5876 5875 5873 5872 5870 5868 5867 5866 5865 5864 5862 5861 5859 5858 5857 5856 5854 5853 5851 5851 5849 5848 5846 5845 5843 5841 5840 5838 5836 5834 5832 5831 5829 5827 5825 5823 5822 5820 5818
5879 5878 5876 5874 5873 5871 5870 5869 5867 5865 5864 5863 5861 5860 5859 5857 5856 5854 5853 5851 5850 5848 5847 5846 5844 5843 5841 5840 5838 5836 5834 5832 5830 5829 5827 5825 5824 5822 5820 5818 5816 5814 5812
5876 5875 5873 5871 5870 5868 5867 5865 5864 5862 5861 5859 5857 5856 5854 5853 5851 5850 5848 5847 5845 5844 5842 5840 5839 5837 5836 5834 5832 5830 5828 5826 5824 5822 5821 5819 5818 5816 5814 5812 5810 5808 5806
5873 5872 5870 5868 5866 5865 5864 5862 5861 5859 5857 5855 5854 5852 5850 5848 5846 5845 5843 5841 5840 5838 5837 5835 5833 5832 5830 5828 5826 5824 5822 5820 5818 5816 5814 5812 5811 5809 5808 5806 5804 5802 5800
5869 5867 5866 5864 5862 5861 5860 5858 5857 5855 5853 5851 5849 5847 5845 5843 5841 5840 5838 5836 5835 5833 5831 5829 5828 5826 5824 5822 5820 5818 5816 5814 5812 5809 5807 5806 5804 5802 5801 5799 5797 5795 5794
5864 5863 5861 5860 5858 5857 5856 5854 5852 5851 5849 5847 5844 5842 5840 5838 5836 5834 5832 5831 5829 5827 5825 5823 5822 5820 5818 5816 5814 5812 5809 5808 5805 5803 5800 5799 5797 5795 5794 5792 5790 5789 5787
5859 5858 5857 5855 5854 5852 5851 5849 5847 5846 5844 5842 5839 5837 5835 5832 5831 5829 5827 5825 5823 5821 5819 5817 5815 5813 5811 5809 5807 5805 5803 5800 5798 5796 5794 5792 5790 5788 5786 5785 5784 5782 5780
5854 5853 5851 5850 5848 5847 5845 5844 5842 5840 5838 5836 5834 5832 5829 5827 5825 5823 5821 5819 5817 5814 5812 5810 5808 5806 5804 5802 5800 5798 5795 5793 5790 5788 5786 5784 5783 5781 5779 5778 5777 5775 5773
5848 5847 5845 5843 5842 5840 5839 5837 5835 5834 5832 5830 5828 5826 5823 5821 5819 5817 5815 5813 5810 5808 5806 5803 5801 5799 5797 5794 5792 5790 5787 5785 5783 5781 5779 5777 5775 5774 5772 5771 5769 5768 5766
5842 5841 5839 5837 5835 5834 5832 5831 5829 5827 5825 5824 5821 5819 5817 5815 5813 5810 5808 5806 5803 5801 5798 5796 5793 5791 5789 5786 5784 5782 5779 5777 5775 5773 5771 5769 5768 5766 5765 5764 5762 5760 5759